GLOBALSTAR M004 DEB, 43357

Orbit data source: Space-Track

GLOBALSTAR M004 DEB, 43357 is space debris in LEO originally from a launch on Sat, 14 Feb 1998 UTC launched from the Air Force Eastern Test Range (AFETR). Debris objects in space refer to the collection of defunct objects orbiting the Earth. Examples of debris include non-operational satellites, rocket bodies, and fragments generated from explosions, collisions, or faulty payload assembly.

Loading next visibility...
GLOBALSTAR M004 DEB details
Identifier
43357, 1998-008H
Orbit
LEO
Last TLE update2 days ago
Origin
Flag of USBoeing/HB (US)
ManufacturerUnknown
MissionSpacecraft
Bus & MotorUnknown
MassUnknown
Launch date (UTC)
1998-02-14 (27 years ago)
Launch vehicleUnknown
Launch site
Air Force Eastern Test Range (AFETR)
Object type
Payload
Rocket body
Debris
Shape & HBRUnknown
Radar Cross SectionSmall (<0.1 m²)

Expand to show TLE details & history

TLE from 2 days ago
0 GLOBALSTAR M004 DEB
1 43357U 98008H   24360.31214717 -.00000220  00000-0 -66200-3 0  9991
2 43357  51.9714 327.8482 0101712 348.0465  11.7990 12.59761289410447
Epoch: 2024-12-25T07:29Z
Definitive object data (Epoch: 2024-12-25T07:29:29.515Z)
Latitude0.00001°
Longitude121.16753°
Altitude1,346.965 km
Speed7.221 km/s
True Right ascension21h 51m 23s
True Declination0° 00' 00"
Sunlit
Object was in daylight at TLE epoch
Visualization TLE readout
Latitude9.61649°
Longitude124.16343°
Altitude1,349.64 km
Speed7.219 km/s
Apparent Right ascension00h 42m 18s
Apparent Declination-27° 34' 17"
Sunlit
Object is in daylight
Visualization observer readout
Local Sidereal Time19:06:47
Azimuth115.248° SE
Elevation-12.973°
Doppler factor1
Orbital elements
Apogee altitude1,503.686 km
Perigee altitude1,344.965 km
Semi-major axis7,802.463 km
Eccentricity0.0101712
Inclination51.9714°
RAAN327.8482°
Arg. of periapsis348.0465°
True anomaly12.04033°
Mean anomaly11.799°
Eccentric anomaly11.91936°
Mean motion3.14917 °/min
BSTAR-0.000662
Orbital period114.32 mins
Loading maneuver chart data...
Loading historical data...
Loading historical data...
Loading historical data...
Loading historical data...
Loading historical data...
Loading historical data...
Loading historical data...

GLOBALSTAR M004 DEB Visibility forecast

Observer location: undefined°, undefined

Span
Click to sort rows by Start time (UTC) header in descending order
Start Az.
Max El. time (UTC)
Max El. Az.
Max El.
End time (UTC)
End Az.
15 mins2024-12-26 23:35:05.184Z200.747° SSW2024-12-26 23:43:05.184Z126.137° SE36.458°2024-12-26 23:50:05.184Z62.146° ENE
15 mins2024-12-27 01:36:05.184Z254.143° W2024-12-27 01:43:05.184Z342.181° N41.185°2024-12-27 01:51:05.184Z50.742° ENE
14 mins2024-12-27 03:38:05.184Z296.58° NW2024-12-27 03:44:05.184Z353.666° N31.529°2024-12-27 03:52:05.184Z61.281° ENE
15 mins2024-12-27 05:39:05.184Z311.761° NW2024-12-27 05:46:05.184Z21.205° NNE37.163°2024-12-27 05:54:05.184Z93.765° ESE
16 mins2024-12-27 07:39:05.184Z304.151° NW2024-12-27 07:47:05.184Z203.065° SW43.532°2024-12-27 07:55:05.184Z141.589° SSE
10 mins2024-12-27 09:41:05.184Z273.648° WNW2024-12-27 09:45:05.184Z244.199° WSW18.281°2024-12-27 09:51:05.184Z201.122° SSW
|